"2010-07-29 00:00:00",23341,3.694,317.3,3.152,0.233,21.7,109.016,22.37,23.22,51.32,0,110.9,13.19,23.20,279.3
"2010-07-29 00:00:30",23342,3.723,322.8,3.239,0.099,21.68,109.0168,22.37,23.22,51.39,0,111,13.19,23.20,284.8
"2010-07-29 00:01:00",23343,3.582,323.8,2.254,0.153,21.7,109.0165,22.37,23.23,51.39,0,111,13.19,23.20,285.8
"2010-07-29 00:01:30",23344,3.286,318.8,3.461,0.117,21.85,109.0238,22.39,23.24,51.62,0,110.9,13.19,23.22,280.8
"2010-07-29 00:02:00",23345,3.372,317,1.28,0.071,21.96,109.0415,22.43,23.28,51.65,0,110.9,13.19,23.26,279.0
"2010-07-29 00:02:30",23346,3.364,316.6,4.596,0.237,21.87,109.0469,22.45,23.28,51.58,0,110.9,13.19,23.28,278.6
"2010-07-29 00:03:00",23347,3.818,321.1,3.257,0.243,21.94,109.0584,22.48,23.31,51.41,0,110.9,13.19,23.31,283.1
"2010-07-29 00:03:30",23348,3.916,319.3,3.037,0.165,21.99,109.0753,22.52,23.32,51.39,0,110.9,13.19,23.35,281.3
"2010-07-29 00:04:00",23349,3.558,324.9,4.901,0.299,21.8,109.0756,22.52,23.34,50.68,0,111,13.19,23.35,286.9
"2010-07-29 00:04:30",23350,3.441,322.4,5.847,0.44,21.95,109.0756,22.52,23.34,50.97,0,110.9,13.19,23.35,284.4
"2010-07-29 00:05:00",23351,3.378,319.8,4.815,0.218,21.99,109.0759,22.52,23.34,50.93,0,110.9,13.19,23.35,281.8
"2010-07-29 00:05:30",23352,3.289,321.1,5.046,0.365,21.96,109.0775,22.53,23.37,50.71,0,110.9,13.19,23.36,283.1
"2010-07-29 00:06:00",23353,3.085,324,6.048,0.25,21.95,109.0967,22.57,23.38,50.61,0,110.9,13.19,23.41,286.0
"2010-07-29 00:06:30",23354,3.551,325.7,7.067,0.178,21.79,109.0972,22.58,23.4,50.47,0,110.9,13.18,23.41,287.7
"2010-07-29 00:07:00",23355,3.636,324.6,5.362,0.182,21.84,109.0857,22.55,23.41,50.52,0,110.9,13.18,23.38,286.6
"2010-07-29 00:07:30",23356,3.258,326.1,5.241,0.165,21.77,109.0815,22.54,23.39,50.5,0,110.9,13.18,23.37,288.1
"2010-07-29 00:08:00",23357,3.543,314.8,5.825,0.364,21.96,109.095,22.57,23.4,50.25,0,110.9,13.18,23.40,276.8
"2010-07-29 00:08:30",23358,3.107,336.9,10.28,0.39,21.66,109.1028,22.59,23.42,50.14,0,110.9,13.18,23.42,298.9
"2010-07-29 00:09:00",23359,3.105,337.6,7.485,0.352,21.7,109.0995,22.58,23.41,50.22,0,110.9,13.18,23.41,299.6
"2010-07-29 00:09:30",23360,3.568,337.6,3.864,0.145,21.49,109.0818,22.54,23.42,50.11,0,110.9,13.18,23.37,299.6
"2010-07-29 00:10:00",23361,4.14,342.5,4.304,0.472,21.57,109.0756,22.52,23.39,50.26,0,110.9,13.19,23.35,304.5
"2010-07-29 00:10:30",23362,4.433,347.4,4.188,0.296,21.46,109.0705,22.51,23.39,50.12,0,110.9,13.19,23.34,309.4
"2010-07-29 00:11:00",23363,4.503,348.6,3.016,0.433,21.51,109.0483,22.45,23.37,50.11,0,110.9,13.19,23.28,310.6
"2010-07-29 00:11:30",23364,4.673,345.6,3.969,0.184,21.49,109.0418,22.43,23.35,50.17,0,110.9,13.19,23.26,307.6
"2010-07-29 00:12:00",23365,4.149,345.3,3.4,0.343,21.46,109.0418,22.43,23.32,50.19,0,110.9,13.19,23.26,307.3
"2010-07-29 00:12:30",23366,4.218,341,2.967,0.443,21.51,109.0418,22.43,23.34,50.31,0,110.9,13.19,23.26,303.0
"2010-07-29 00:13:00",23367,4.028,343.2,3.835,0.318,21.49,109.0418,22.43,23.32,50.23,0,110.9,13.19,23.26,305.2
"2010-07-29 00:13:30",23368,3.758,347.5,4.441,0.485,21.49,109.0399,22.43,23.3,50.12,0,110.9,13.19,23.26,309.5
"2010-07-29 00:14:00",23369,4.1,344.5,5.722,0.485,21.54,109.0376,22.42,23.3,50.27,0,110.9,13.19,23.25,306.5
"2010-07-29 00:14:30",23370,3.915,348.8,3.903,0.544,21.53,109.0399,22.43,23.31,50.26,0,110.9,13.19,23.26,310.8
"2010-07-29 00:15:00",23371,4.335,343.4,2.837,0.129,21.57,109.0418,22.43,23.31,50.43,0,110.9,13.19,23.26,305.4
"2010-07-29 00:15:30",23372,4.041,349.8,4.651,0.665,21.56,109.0418,22.43,23.3,50.33,0,110.9,13.19,23.26,311.8
"2010-07-29 00:16:00",23373,3.899,350.3,2.749,0.506,21.57,109.0418,22.43,23.29,50.4,0,110.9,13.19,23.26,312.3
"2010-07-29 00:16:30",23374,4.151,345.7,4.606,0.577,21.55,109.0418,22.43,23.29,50.5,0,110.9,13.19,23.26,307.7
"2010-07-29 00:17:00",23375,2.579,356.4,6.323,0.686,21.54,109.0421,22.43,23.31,50.42,0,110.9,13.19,23.26,318.4
"2010-07-29 00:17:30",23376,2.277,0.547,6.72,0.734,21.57,109.0418,22.43,23.32,50.54,0,110.9,13.19,23.26,322.5
"2010-07-29 00:18:00",23377,3.303,353.7,7.518,0.991,21.6,109.0418,22.43,23.33,50.56,0,110.9,13.19,23.26,315.7
"2010-07-29 00:18:30",23378,4.386,340.9,3.387,0.198,21.72,109.046,22.44,23.33,50.36,0,110.9,13.19,23.27,302.9
"2010-07-29 00:19:00",23379,4.227,339.7,2.838,0.289,21.66,109.0725,22.51,23.36,50.27,0,110.9,13.19,23.34,301.7
"2010-07-29 00:19:30",23380,3.273,351.9,6.967,0.944,21.61,109.0759,22.52,23.37,50.57,0,110.9,13.19,23.35,313.9
"2010-07-29 00:20:00",23381,4.298,347.9,2.208,0.339,21.66,109.0756,22.52,23.37,50.36,0,110.9,13.19,23.35,309.9
"2010-07-29 00:20:30",23382,4.23,348.2,2.643,0.232,21.62,109.0756,22.52,23.38,50.68,0,110.9,13.19,23.35,310.2
"2010-07-29 00:21:00",23383,2.738,357.8,5.847,0.841,21.6,109.0756,22.52,23.39,51.08,0,110.9,13.19,23.35,319.8
"2010-07-29 00:21:30",23384,3.332,355.2,6.543,0.845,21.67,109.0756,22.52,23.38,50.56,0,110.9,13.19,23.35,317.2
"2010-07-29 00:22:00",23385,2.387,0.412,5.8,0.661,21.64,109.0765,22.52,23.39,50.73,0,110.9,13.19,23.35,322.4
"2010-07-29 00:22:30",23386,3.874,352.1,3.107,0.498,21.65,109.0756,22.52,23.4,50.51,0,110.9,13.19,23.35,314.1
"2010-07-29 00:23:00",23387,2.587,0.065,4.293,0.51,21.58,109.0756,22.52,23.4,51.32,0,110.9,13.19,23.35,322.1
"2010-07-29 00:23:30",23388,2.581,358.5,2.198,0.251,21.55,109.0759,22.52,23.39,51.42,0,110.9,13.19,23.35,320.5
"2010-07-29 00:24:00",23389,2.993,356.8,3.197,0.37,21.59,109.0739,22.52,23.39,50.9,0,110.9,13.19,23.35,318.8
"2010-07-29 00:24:30",23390,3.549,353,1.939,0.309,21.61,109.0753,22.52,23.39,50.67,0,110.9,13.18,23.35,315.0
"2010-07-29 00:25:00",23391,3.517,353.9,2.509,0.395,21.65,109.0765,22.52,23.39,50.61,0,110.9,13.19,23.35,315.9
"2010-07-29 00:25:30",23392,2.884,358.3,4.566,0.684,21.63,109.0771,22.52,23.38,50.57,0,110.9,13.19,23.35,320.3
"2010-07-29 00:26:00",23393,2.515,0.566,5.808,0.747,21.61,109.0762,22.52,23.38,51.18,0,110.9,13.19,23.35,322.6
"2010-07-29 00:26:30",23394,2.497,0.104,2.833,0.33,21.58,109.075,22.52,23.39,51.67,0,110.9,13.19,23.35,322.1
"2010-07-29 00:27:00",23395,3.292,357.3,4.135,0.546,21.57,109.0669,22.5,23.37,51.67,0,110.9,13.19,23.33,319.3
"2010-07-29 00:27:30",23396,2.363,3.823,5.187,0.388,21.63,109.0658,22.49,23.39,51.4,0,110.9,13.19,23.33,325.8
"2010-07-29 00:28:00",23397,2.655,2.563,6.147,0.466,21.62,109.0652,22.49,23.37,51.83,0,110.9,13.19,23.32,324.6
"2010-07-29 00:28:30",23398,2.596,9.52,4.11,0.292,21.63,109.0627,22.49,23.37,51.48,0,110.9,13.19,23.32,331.5
"2010-07-29 00:29:00",23399,2.569,13.98,4.103,0.353,21.64,109.0646,22.49,23.38,51.98,0,110.9,13.19,23.32,336.0
"2010-07-29 00:29:30",23400,2.417,4.68,4.071,0.264,21.64,109.0714,22.51,23.38,51.28,0,110.9,13.19,23.34,326.7
"2010-07-29 00:30:00",23401,2.354,10.81,3.389,0.246,21.64,109.0762,22.52,23.38,51.36,0,110.9,13.19,23.35,332.8
"2010-07-29 00:30:30",23402,2.377,11.3,3.488,0.304,21.64,109.0759,22.52,23.38,51.85,0,110.9,13.19,23.35,333.3
"2010-07-29 00:31:00",23403,2.544,6.323,4.7,0.31,21.65,109.0762,22.52,23.4,51.86,0,110.9,13.2,23.35,328.3
"2010-07-29 00:31:30",23404,2.641,9.61,4.783,0.302,21.64,109.0762,22.52,23.4,52.35,0,110.9,13.2,23.35,331.6
"2010-07-29 00:32:00",23405,3.14,11.92,6.049,0.319,21.62,109.0759,22.52,23.39,52.85,0,110.9,13.2,23.35,333.9
"2010-07-29 00:32:30",23406,3.636,10.41,1.825,0.318,21.65,109.0768,22.52,23.4,52.31,0,110.9,13.2,23.35,332.4
"2010-07-29 00:33:00",23407,3.409,14.56,1.897,0.266,21.66,109.0759,22.52,23.38,52.62,0,110.9,13.2,23.35,336.6
"2010-07-29 00:33:30",23408,3.056,14.83,3.133,0.24,21.63,109.0784,22.53,23.38,53.1,0,110.9,13.2,23.36,336.8
"2010-07-29 00:34:00",23409,2.355,4.704,7.737,0.347,21.68,109.0768,22.52,23.38,52.17,0,111,13.2,23.35,326.7
"2010-07-29 00:34:30",23410,2.784,2.215,5.846,0.411,21.68,109.0765,22.52,23.4,51.83,0,110.9,13.19,23.35,324.2
"2010-07-29 00:35:00",23411,3.153,15.36,3.015,0.458,21.64,109.0768,22.52,23.41,53.32,0,110.9,13.2,23.35,337.4
"2010-07-29 00:35:30",23412,3.114,11.25,4.312,0.481,21.66,109.0762,22.52,23.41,53.01,0,110.9,13.2,23.35,333.2
"2010-07-29 00:36:00",23413,2.903,5.092,3.638,0.424,21.67,109.0759,22.52,23.41,53.32,0,110.9,13.2,23.35,327.1
"2010-07-29 00:36:30",23414,2.732,11.05,4.56,0.296,21.67,109.0768,22.52,23.4,53.98,0,110.9,13.2,23.35,333.0
"2010-07-29 00:37:00",23415,2.938,15.03,3.405,0.52,21.68,109.0759,22.52,23.4,53.85,0,110.9,13.2,23.35,337.0
"2010-07-29 00:37:30",23416,2.933,358.1,3.891,0.517,21.73,109.0762,22.52,23.4,52.7,0,110.9,13.2,23.35,320.1
"2010-07-29 00:38:00",23417,3.547,356.8,5.902,0.446,21.69,109.0759,22.52,23.41,51.71,0,110.9,13.2,23.35,318.8
"2010-07-29 00:38:30",23418,3.522,351.5,2.848,0.391,21.69,109.0785,22.53,23.43,51.98,0,110.9,13.2,23.36,313.5
"2010-07-29 00:39:00",23419,3.3,354.7,4.442,0.602,21.7,109.0896,22.56,23.43,51.78,0,111,13.19,23.39,316.7
"2010-07-29 00:39:30",23420,2.783,355.7,6.75,0.632,21.69,109.0952,22.57,23.44,52.17,0,110.9,13.19,23.40,317.7
"2010-07-29 00:40:00",23421,1.959,7.06,4.391,0.211,21.67,109.1015,22.59,23.45,53.47,0,110.9,13.19,23.42,329.1
"2010-07-29 00:40:30",23422,2.386,5.665,6.617,0.325,21.68,109.1045,22.59,23.45,53.53,0,110.9,13.19,23.43,327.7
"2010-07-29 00:41:00",23423,2.434,0.611,5.844,0.477,21.68,109.1001,22.58,23.46,53.52,0,110.9,13.19,23.41,322.6
"2010-07-29 00:41:30",23424,2.541,359.8,3.455,0.379,21.68,109.1015,22.59,23.46,53.53,0,110.9,13.19,23.42,321.8
"2010-07-29 00:42:00",23425,3.115,355.1,2.491,0.407,21.69,109.1038,22.59,23.45,53.39,0,110.9,13.19,23.42,317.1
"2010-07-29 00:42:30",23426,2.959,356.9,2.52,0.294,21.7,109.1027,22.59,23.45,54.05,0,110.9,13.19,23.42,318.9
"2010-07-29 00:43:00",23427,3.038,358.4,2.472,0.355,21.66,109.0902,22.56,23.44,54.74,0,110.9,13.19,23.39,320.4
"2010-07-29 00:43:30",23428,2.679,0.233,3.475,0.559,21.7,109.0837,22.54,23.44,54.01,0,111,13.19,23.37,322.2
"2010-07-29 00:44:00",23429,3.564,354.6,3.901,0.583,21.74,109.0913,22.56,23.45,53.48,0,111,13.19,23.39,316.6
"2010-07-29 00:44:30",23430,4.19,351.6,1.922,0.449,21.72,109.0995,22.58,23.45,53.13,0,111,13.19,23.41,313.6
"2010-07-29 00:45:00",23431,4.291,351.8,1.665,0.356,21.7,109.1001,22.58,23.46,54.19,0,110.9,13.19,23.41,313.8
"2010-07-29 00:45:30",23432,4.128,352.5,2.352,0.391,21.71,109.0953,22.57,23.47,54.3,0,111,13.2,23.40,314.5
"2010-07-29 00:46:00",23433,3.625,355.3,1.753,0.299,21.72,109.0908,22.56,23.44,54.34,0,111,13.2,23.39,317.3
"2010-07-29 00:46:30",23434,4.112,353.4,1.813,0.31,21.66,109.0829,22.54,23.44,55.19,0,111,13.2,23.37,315.4
"2010-07-29 00:47:00",23435,4.41,352.8,1.216,0.291,21.69,109.0759,22.52,23.44,55.63,0,111,13.2,23.35,314.8
"2010-07-29 00:47:30",23436,4.928,351.3,1.133,0.296,21.66,109.0756,22.52,23.43,55.86,0,111,13.2,23.35,313.3
"2010-07-29 00:48:00",23437,4.833,352.5,1.752,0.269,21.67,109.0753,22.52,23.41,55.73,0,111,13.2,23.35,314.5
"2010-07-29 00:48:30",23438,4.314,355.3,1.562,0.178,21.71,109.0658,22.49,23.39,55.77,0,111,13.2,23.33,317.3
"2010-07-29 00:49:00",23439,4.242,356.1,1.271,0.19,21.69,109.0531,22.46,23.39,55.82,0,111,13.2,23.29,318.1
"2010-07-29 00:49:30",23440,4.495,354.8,1.19,0.214,21.69,109.0489,22.45,23.38,56.09,0,111,13.2,23.28,316.8
"2010-07-29 00:50:00",23441,4.215,356.2,1.681,0.281,21.73,109.0452,22.44,23.37,55.72,0,111,13.2,23.27,318.2
"2010-07-29 00:50:30",23442,4.241,356.3,1.622,0.303,21.74,109.0466,22.45,23.37,55,0,111,13.2,23.28,318.3
"2010-07-29 00:51:00",23443,4.597,354.7,1.142,0.186,21.76,109.0523,22.46,23.37,54.77,0,111,13.2,23.29,316.7
"2010-07-29 00:51:30",23444,4.172,354.4,1.511,0.325,21.75,109.0669,22.5,23.38,55.12,0,111,13.2,23.33,316.4
"2010-07-29 00:52:00",23445,4.45,352.9,1.805,0.262,21.73,109.0706,22.51,23.38,55.66,0,110.9,13.2,23.34,314.9
"2010-07-29 00:52:30",23446,5.162,351.2,1.26,0.316,21.77,109.0678,22.5,23.39,55.21,0,111,13.2,23.33,313.2
"2010-07-29 00:53:00",23447,5.076,351.8,1.263,0.278,21.77,109.0729,22.51,23.38,55.03,0,111,13.2,23.34,313.8
"2010-07-29 00:53:30",23448,4.55,354.3,1.449,0.284,21.75,109.0747,22.52,23.39,55.46,0,111,13.2,23.35,316.3
"2010-07-29 00:54:00",23449,4.589,354.8,1.4,0.181,21.79,109.0759,22.52,23.38,54.94,0,111,13.2,23.35,316.8
"2010-07-29 00:54:30",23450,5.078,353.4,1.525,0.34,21.82,109.0777,22.53,23.4,54.23,0,111,13.2,23.36,315.4
"2010-07-29 00:55:00",23451,5.383,352.6,2.1,0.502,21.8,109.0771,22.52,23.4,54.38,0,111,13.2,23.35,314.6
"2010-07-29 00:55:30",23452,4.785,354.7,1.875,0.524,21.79,109.0768,22.52,23.42,54.62,0,111,13.2,23.35,316.7
"2010-07-29 00:56:00",23453,4.718,355.7,1.593,0.347,21.8,109.0776,22.53,23.43,54.34,0,110.9,13.19,23.36,317.7
"2010-07-29 00:56:30",23454,4.52,354.6,1.595,0.458,21.83,109.0846,22.54,23.42,54.17,0,111,13.19,23.37,316.6
"2010-07-29 00:57:00",23455,4.144,355.7,3.029,0.774,21.82,109.093,22.56,23.43,54.41,0,111,13.19,23.40,317.7
"2010-07-29 00:57:30",23456,4.502,353.6,3.349,0.534,21.84,109.0984,22.58,23.44,54.09,0,111,13.19,23.41,315.6
"2010-07-29 00:58:00",23457,4.211,352.9,5.493,0.872,21.87,109.1066,22.6,23.45,52.74,0,111,13.19,23.43,314.9
"2010-07-29 00:58:30",23458,4.223,349.2,5.667,0.662,21.92,109.1099,22.61,23.46,50.43,0,111,13.19,23.44,311.2
"2010-07-29 00:59:00",23459,4.618,344.9,3.695,0.456,21.94,109.1321,22.67,23.49,49.05,0,110.9,13.19,23.50,306.9
"2010-07-29 00:59:30",23460,3.209,357.7,4.742,0.816,21.84,109.1431,22.69,23.53,51.45,0,111,13.19,23.52,319.7
"2010-07-29 01:00:00",23461,3.846,350.1,4.443,0.81,21.91,109.1532,22.72,23.55,48.57,0,110.9,13.19,23.55,312.1
"2010-07-29 01:00:30",23462,4.462,352.6,3.301,0.758,21.78,109.1714,22.77,23.58,52.51,0,111,13.19,23.60,314.6
"2010-07-29 01:01:00",23463,4.737,349.6,1.373,0.182,21.77,109.1575,22.73,23.59,52.76,0,111,13.19,23.56,311.6
"2010-07-29 01:01:30",23464,4.81,348.5,1.773,0.262,21.78,109.1453,22.7,23.56,52.42,0,111,13.19,23.53,310.5
"2010-07-29 01:02:00",23465,4.732,348.7,1.165,0.205,21.79,109.1433,22.69,23.58,52.15,0,111,13.2,23.53,310.7
"2010-07-29 01:02:30",23466,5.034,347.4,1.89,0.185,21.85,109.1433,22.69,23.58,51.75,0,111,13.2,23.53,309.4
"2010-07-29 01:03:00",23467,5.158,348,1.304,0.326,21.82,109.144,22.7,23.58,52.36,0,111,13.2,23.53,310.0
"2010-07-29 01:03:30",23468,5.25,349,0.8,0.164,21.86,109.1433,22.69,23.57,52.32,0,110.9,13.2,23.53,311.0
"2010-07-29 01:04:00",23469,5.259,349.1,1.088,0.192,21.84,109.1433,22.69,23.57,52.03,0,111,13.2,23.53,311.1
"2010-07-29 01:04:30",23470,5.609,347.2,0.954,0.142,21.81,109.1431,22.69,23.58,52.15,0,110.9,13.2,23.52,309.2
"2010-07-29 01:05:00",23471,5.467,343.5,3.323,0.183,21.82,109.1431,22.69,23.56,51.77,0,111,13.2,23.52,305.5
"2010-07-29 01:05:30",23472,5.271,345,1.974,0.151,21.79,109.1437,22.69,23.57,51.78,0,110.9,13.2,23.53,307.0
"2010-07-29 01:06:00",23473,5.042,347.8,1.155,0.117,21.85,109.1437,22.69,23.57,51.52,0,110.9,13.2,23.53,309.8
"2010-07-29 01:06:30",23474,5.561,347.8,1.699,0.216,21.88,109.1437,22.69,23.57,51.2,0,111,13.2,23.53,309.8
"2010-07-29 01:07:00",23475,5.589,349,0.974,0.093,21.81,109.1431,22.69,23.6,52.82,0,110.9,13.2,23.52,311.0
"2010-07-29 01:07:30",23476,5.436,350.1,1.338,0.243,21.8,109.1433,22.69,23.58,53.02,0,111,13.2,23.53,312.1
"2010-07-29 01:08:00",23477,5.775,348.3,1.52,0.185,21.82,109.1431,22.69,23.58,52.18,0,111,13.2,23.52,310.3
"2010-07-29 01:08:30",23478,5.591,350.2,1.034,0.215,21.82,109.1431,22.69,23.56,52.43,0,110.9,13.2,23.52,312.2
"2010-07-29 01:09:00",23479,5.723,349.3,1.249,0.242,21.82,109.1433,22.69,23.58,52.89,0,111,13.2,23.53,311.3
"2010-07-29 01:09:30",23480,4.933,353.3,1.778,0.463,21.81,109.1419,22.69,23.57,53.35,0,111,13.2,23.52,315.3
"2010-07-29 01:10:00",23481,5.196,351.5,2.488,0.512,21.83,109.1307,22.66,23.56,53.39,0,111,13.2,23.49,313.5
"2010-07-29 01:10:30",23482,5.594,350.1,1.846,0.355,21.8,109.1217,22.64,23.54,53.09,0,111,13.2,23.47,312.1
"2010-07-29 01:11:00",23483,5.046,351.9,3.235,0.597,21.81,109.1152,22.62,23.55,53.13,0,111,13.2,23.45,313.9
"2010-07-29 01:11:30",23484,5.153,351.3,3.586,0.628,21.83,109.1166,22.63,23.55,52.59,0,111,13.2,23.46,313.3
"2010-07-29 01:12:00",23485,5.273,352.7,2.163,0.615,21.79,109.1163,22.62,23.54,53.47,0,110.9,13.2,23.46,314.7
"2010-07-29 01:12:30",23486,4.577,354.3,2.369,0.451,21.79,109.1124,22.61,23.54,53.67,0,111,13.2,23.45,316.3
"2010-07-29 01:13:00",23487,4.952,352.6,1.698,0.429,21.84,109.1102,22.61,23.54,53.15,0,111,13.19,23.44,314.6
"2010-07-29 01:13:30",23488,4.81,353,1.61,0.364,21.81,109.1096,22.61,23.53,53.65,0,111,13.19,23.44,315.0
"2010-07-29 01:14:00",23489,4.617,353.8,2.221,0.444,21.8,109.1096,22.61,23.52,53.85,0,111,13.19,23.44,315.8
"2010-07-29 01:14:30",23490,5.076,351.9,1.258,0.218,21.81,109.1099,22.61,23.51,53.43,0,111,13.19,23.44,313.9
"2010-07-29 01:15:00",23491,4.626,353.1,1.365,0.231,21.82,109.1096,22.61,23.5,53.75,0,110.9,13.19,23.44,315.1
"2010-07-29 01:15:30",23492,4.475,353.8,1.528,0.24,21.83,109.1093,22.61,23.5,54,0,111,13.19,23.44,315.8
"2010-07-29 01:16:00",23493,4.566,353.1,2.419,0.438,21.83,109.1093,22.61,23.51,53.96,0,111,13.19,23.44,315.1
"2010-07-29 01:16:30",23494,5.096,351.4,1.555,0.279,21.85,109.1096,22.61,23.5,53.83,0,111,13.19,23.44,313.4
"2010-07-29 01:17:00",23495,4.26,354.2,2.598,0.545,21.84,109.1093,22.61,23.48,53.75,0,111,13.19,23.44,316.2
"2010-07-29 01:17:30",23496,4.164,355.6,1.862,0.444,21.88,109.1096,22.61,23.5,53.47,0,111,13.19,23.44,317.6
"2010-07-29 01:18:00",23497,3.937,356.4,2.451,0.402,21.86,109.1093,22.61,23.51,53.6,0,111,13.19,23.44,318.4
"2010-07-29 01:18:30",23498,4.45,354.2,2.128,0.413,21.86,109.1093,22.61,23.5,53.63,0,110.9,13.2,23.44,316.2
"2010-07-29 01:19:00",23499,4.089,356.8,2.769,0.457,21.87,109.1102,22.61,23.51,53.3,0,111,13.2,23.44,318.8
"2010-07-29 01:19:30",23500,4.556,354.8,3.106,0.588,21.92,109.1096,22.61,23.51,53,0,111,13.2,23.44,316.8
"2010-07-29 01:20:00",23501,4.495,354.8,1.844,0.42,21.9,109.1093,22.61,23.51,52.44,0,111,13.2,23.44,316.8
"2010-07-29 01:20:30",23502,4.335,355.3,3.132,0.491,21.91,109.117,22.63,23.52,52.77,0,110.9,13.2,23.46,317.3
"2010-07-29 01:21:00",23503,5.183,352.1,2.58,0.674,21.94,109.1273,22.65,23.52,51.62,0,111,13.2,23.48,314.1
"2010-07-29 01:21:30",23504,5.001,353.6,1.654,0.277,21.91,109.1428,22.69,23.53,52.12,0,111,13.2,23.52,315.6
"2010-07-29 01:22:00",23505,4.158,357.2,1.886,0.373,21.91,109.1433,22.69,23.55,52.28,0,110.9,13.2,23.53,319.2
"2010-07-29 01:22:30",23506,3.846,358.1,1.945,0.254,21.92,109.1433,22.69,23.55,52.36,0,110.9,13.2,23.53,320.1
"2010-07-29 01:23:00",23507,4.825,353.9,2.119,0.451,21.96,109.1431,22.69,23.55,51.59,0,111,13.2,23.52,315.9
"2010-07-29 01:23:30",23508,4.022,357.4,2.357,0.537,21.93,109.1436,22.69,23.58,51.98,0,110.9,13.2,23.53,319.4
"2010-07-29 01:24:00",23509,4.035,357.2,2.374,0.363,21.93,109.1445,22.7,23.59,52.22,0,110.9,13.2,23.53,319.2
"2010-07-29 01:24:30",23510,3.812,358.1,1.666,0.306,21.92,109.1463,22.7,23.59,52.46,0,111,13.2,23.53,320.1
"2010-07-29 01:25:00",23511,3.796,358.1,2.131,0.386,21.93,109.1468,22.7,23.59,52.12,0,110.9,13.2,23.53,320.1
"2010-07-29 01:25:30",23512,5.614,349.3,2.261,0.403,21.96,109.1539,22.72,23.6,51.3,0,111,13.2,23.55,311.3
"2010-07-29 01:26:00",23513,6.049,348.5,1.559,0.202,21.99,109.1668,22.75,23.6,51.02,0,111,13.2,23.59,310.5
"2010-07-29 01:26:30",23514,4.752,354.1,3.926,0.95,21.95,109.1727,22.77,23.62,51.57,0,111,13.2,23.60,316.1
"2010-07-29 01:27:00",23515,4.18,354.3,2.085,0.31,21.97,109.1766,22.78,23.61,51.26,0,110.9,13.2,23.61,316.3
"2010-07-29 01:27:30",23516,3.753,355.9,2.69,0.524,21.93,109.1782,22.78,23.62,51.55,0,110.9,13.2,23.62,317.9
"2010-07-29 01:28:00",23517,4.655,352.8,3.634,0.729,21.95,109.1772,22.78,23.64,51.46,0,110.9,13.2,23.61,314.8
"2010-07-29 01:28:30",23518,3.141,1.272,2.416,0.349,21.98,109.179,22.79,23.64,51.43,0,111,13.2,23.62,323.3
"2010-07-29 01:29:00",23519,3.96,356.5,4.29,0.631,21.95,109.1796,22.79,23.65,51.31,0,111,13.2,23.62,318.5
"2010-07-29 01:29:30",23520,3.705,356.6,2.794,0.61,21.95,109.1798,22.79,23.65,50.86,0,110.9,13.2,23.62,318.6
"2010-07-29 01:30:00",23521,3.618,356.9,2.501,0.408,21.94,109.1786,22.78,23.65,51.3,0,111,13.2,23.62,318.9
"2010-07-29 01:30:30",23522,4.262,354.9,2.383,0.625,21.98,109.1796,22.79,23.66,50.99,0,110.9,13.2,23.62,316.9
"2010-07-29 01:31:00",23523,3.356,359.3,2.213,0.282,21.99,109.178,22.78,23.65,51.78,0,110.9,13.2,23.61,321.3
"2010-07-29 01:31:30",23524,3.681,358.1,3.467,0.539,21.99,109.1796,22.79,23.65,50.76,0,110.9,13.2,23.62,320.1
"2010-07-29 01:32:00",23525,4.138,354.6,4.46,0.962,22.01,109.1783,22.78,23.66,50.67,0,111,13.2,23.62,316.6
"2010-07-29 01:32:30",23526,4.291,354.2,3.927,0.976,21.98,109.1789,22.79,23.65,50.69,0,110.9,13.2,23.62,316.2
"2010-07-29 01:33:00",23527,4.067,355.7,3.103,0.601,21.99,109.1805,22.79,23.67,51.19,0,110.9,13.2,23.62,317.7
"2010-07-29 01:33:30",23528,4.06,354,1.424,0.302,21.99,109.1802,22.79,23.67,51.3,0,110.9,13.2,23.62,316.0
"2010-07-29 01:34:00",23529,3.645,357.1,1.914,0.31,21.98,109.1792,22.79,23.67,51.06,0,110.9,13.2,23.62,319.1
"2010-07-29 01:34:30",23530,3.003,2.247,5.439,0.697,22,109.1817,22.79,23.66,51.32,0,110.9,13.2,23.62,324.2
"2010-07-29 01:35:00",23531,3.382,2.673,6.108,0.509,22,109.1798,22.79,23.68,51.22,0,110.9,13.2,23.62,324.7
"2010-07-29 01:35:30",23532,3.034,5.374,4.839,0.375,21.99,109.1811,22.79,23.68,51.4,0,110.9,13.2,23.62,327.4
"2010-07-29 01:36:00",23533,3.689,357.7,3.24,0.518,21.99,109.1796,22.79,23.68,51.14,0,110.9,13.2,23.62,319.7
"2010-07-29 01:36:30",23534,3.717,356.6,2.391,0.433,22.01,109.1805,22.79,23.68,50.7,0,110.9,13.2,23.62,318.6
"2010-07-29 01:37:00",23535,2.93,5.416,4.97,0.31,21.99,109.1789,22.79,23.68,51.4,0,110.9,13.2,23.62,327.4
"2010-07-29 01:37:30",23536,3.122,9.81,4.179,0.223,22.04,109.1805,22.79,23.68,51.15,0,110.9,13.2,23.62,331.8
"2010-07-29 01:38:00",23537,3.159,6.595,4.765,0.253,22,109.1811,22.79,23.69,51.3,0,110.9,13.2,23.62,328.6
"2010-07-29 01:38:30",23538,3.383,1.073,1.978,0.265,22,109.1796,22.79,23.68,51.35,0,110.9,13.2,23.62,323.1
"2010-07-29 01:39:00",23539,3.081,2.541,1.696,0.256,22.06,109.1798,22.79,23.69,50.98,0,110.9,13.2,23.62,324.5
"2010-07-29 01:39:30",23540,2.785,4.768,2.717,0.201,22.05,109.1808,22.79,23.68,50.86,0,110.9,13.2,23.62,326.8
"2010-07-29 01:40:00",23541,2.851,1.708,1.863,0.195,22.05,109.1802,22.79,23.68,51.06,0,110.9,13.2,23.62,323.7
"2010-07-29 01:40:30",23542,2.622,5.598,3.493,0.253,22.05,109.1796,22.79,23.69,51.16,0,110.9,13.2,23.62,327.6
"2010-07-29 01:41:00",23543,2.501,7.234,3.281,0.213,22.01,109.1811,22.79,23.68,51.22,0,110.9,13.2,23.62,329.2
"2010-07-29 01:41:30",23544,2.775,4.964,3.019,0.239,22.02,109.1823,22.79,23.69,51.19,0,110.9,13.2,23.63,327.0
"2010-07-29 01:42:00",23545,3.268,1.054,2.83,0.241,22.02,109.1811,22.79,23.69,51.37,0,110.9,13.2,23.62,323.1
"2010-07-29 01:42:30",23546,3.372,359.8,2.399,0.302,22.01,109.1789,22.79,23.68,51.7,0,110.9,13.2,23.62,321.8
"2010-07-29 01:43:00",23547,3.097,1.069,2.178,0.238,21.99,109.1811,22.79,23.69,51.78,0,110.9,13.2,23.62,323.1
"2010-07-29 01:43:30",23548,4.404,356,3.324,0.915,21.78,109.179,22.79,23.67,53.68,0,110.9,13.2,23.62,318.0
"2010-07-29 01:44:00",23549,5.163,353.8,1.416,0.292,21.78,109.1488,22.71,23.65,54.25,0,110.9,13.2,23.54,315.8
"2010-07-29 01:44:30",23550,6.252,349.7,2.25,0.269,21.59,109.122,22.64,23.62,55.59,0,110.9,13.2,23.47,311.7
"2010-07-29 01:45:00",23551,6.327,343.8,2.531,0.145,21.37,109.0778,22.53,23.54,57.43,0,110.9,13.2,23.36,305.8
"2010-07-29 01:45:30",23552,6.111,344.7,3.075,0.246,21.52,109.0344,22.41,23.47,57.35,0,110.9,13.2,23.24,306.7
"2010-07-29 01:46:00",23553,6.052,351.7,2.121,0.384,21.82,109.0124,22.36,23.41,56.08,0,110.9,13.2,23.19,313.7
"2010-07-29 01:46:30",23554,4.829,355.7,1.998,0.561,21.91,109.013,22.36,23.37,55.25,0,110.9,13.2,23.19,317.7
"2010-07-29 01:47:00",23555,4.597,356.7,1.751,0.279,21.94,109.0142,22.36,23.36,55.07,0,110.9,13.2,23.19,318.7
"2010-07-29 01:47:30",23556,3.96,0.198,1.971,0.225,22.06,109.0139,22.36,23.35,54.21,0,110.9,13.2,23.19,322.2
"2010-07-29 01:48:00",23557,3.735,2.227,2.66,0.284,22.06,109.0419,22.43,23.37,54.17,0,110.9,13.2,23.26,324.2
"2010-07-29 01:48:30",23558,3.154,4.672,2.481,0.189,22.04,109.0488,22.45,23.37,54.03,0,110.9,13.2,23.28,326.7
"2010-07-29 01:49:00",23559,3.361,1.988,1.606,0.254,21.98,109.0649,22.49,23.39,53.92,0,110.9,13.2,23.32,324.0
"2010-07-29 01:49:30",23560,3.379,359.7,2.965,0.401,21.82,109.0729,22.51,23.39,55.04,0,110.9,13.19,23.34,321.7